Tracking 30995 objects as of 7-Jul-2025
HD Live streaming from Space Station
objects crossing your sky now

ATLAS 5 CENTAUR DEB

Track ATLAS 5 CENTAUR DEB now!


NORAD ID: 46607
Int'l Code: 2018-079CF
Perigee: 7,798.0 km
Apogee: 31,787.5 km
Inclination: 12.9 °
Period: 702.0 minutes
Semi major axis: 26163 km
RCS: Unknown
Launch date: October 17, 2018
Source: United States (US)
Launch site: AIR FORCE EASTERN TEST RANGE (AFETR)

Note: This is SATELLITE DEBRIS
Your satellite tracking list
Your tracking list is empty




NASA's NSSDC Master Catalog

Two Line Element Set (TLE):
1 46607U 18079CF  25184.28968667 -.00000085  00000-0  00000-0 0  9994
2 46607  12.9239  25.5184 4584491 356.7914   1.1072  2.05141385 43294
Source of the keplerian elements: AFSPC